Hourly Weather Suharevo

Today, 20 January, Wednesday

Time Temperature Precipitation Wind Pressure Humidity
00:00 -16°C° 0 mm 1 mps 749 mmHg 97%
01:00 -18°C° 0 mm 2 mps 749 mmHg 96%
02:00 -18°C° 0 mm 2 mps 749 mmHg 96%
03:00 -17°C° 0 mm 2 mps 749 mmHg 96%
04:00 -17°C° 0 mm 2 mps 749 mmHg 96%
05:00 -17°C° 0 mm 2 mps 749 mmHg 96%
06:00 -17°C° 0 mm 2 mps 749 mmHg 96%
07:00 -18°C° 0 mm 2 mps 749 mmHg 96%
08:00 -18°C° 0 mm 2 mps 749 mmHg 96%
09:00 -17°C° 0 mm 2 mps 750 mmHg 95%
10:00 -16°C° 0 mm 2 mps 750 mmHg 94%
11:00 -15°C° 0 mm 2 mps 750 mmHg 93%
12:00 -14°C° 0 mm 2 mps 750 mmHg 93%
13:00 -14°C° 0 mm 2 mps 750 mmHg 93%
14:00 -14°C° 0 mm 2 mps 750 mmHg 93%
15:00 -15°C° 0 mm 2 mps 750 mmHg 94%
16:00 -16°C° 0 mm 2 mps 750 mmHg 94%
17:00 -17°C° 0 mm 2 mps 751 mmHg 95%
18:00 -18°C° 0 mm 2 mps 751 mmHg 95%
19:00 -18°C° 0 mm 2 mps 751 mmHg 95%
20:00 -19°C° 0 mm 2 mps 751 mmHg 94%
21:00 -19°C° 0 mm 2 mps 750 mmHg 94%
22:00 -19°C° 0 mm 2 mps 750 mmHg 94%
23:00 -20°C° 0 mm 2 mps 750 mmHg 93%

Tomorrow, 21 January, Thursday

Time Temperature Precipitation Wind Pressure Humidity
00:00 -19°C° 0 mm 2 mps 750 mmHg 92%
01:00 -21°C° 0 mm 3 mps 750 mmHg 91%
02:00 -19°C° 0 mm 3 mps 750 mmHg 90%
03:00 -19°C° 0 mm 3 mps 749 mmHg 89%
04:00 -18°C° 0 mm 3 mps 748 mmHg 89%
05:00 -17°C° 0 mm 3 mps 748 mmHg 88%
06:00 -17°C° 0.2 mm 4 mps 747 mmHg 90%
07:00 -17°C° 0.2 mm 4 mps 747 mmHg 92%
08:00 -16°C° 0.2 mm 4 mps 746 mmHg 94%
09:00 -15°C° 0.5 mm 4 mps 746 mmHg 94%
10:00 -15°C° 0.5 mm 4 mps 745 mmHg 94%
11:00 -14°C° 0.5 mm 4 mps 745 mmHg 93%
12:00 -12°C° 0.4 mm 4 mps 744 mmHg 93%
13:00 -11°C° 0.4 mm 4 mps 744 mmHg 93%
14:00 -10°C° 0.4 mm 3 mps 744 mmHg 93%
15:00 -10°C° 0.1 mm 3 mps 744 mmHg 94%
16:00 -10°C° 0.1 mm 3 mps 743 mmHg 94%
17:00 -9°C° 0.1 mm 2 mps 743 mmHg 95%
18:00 -9°C° 0.1 mm 2 mps 743 mmHg 95%
19:00 -8°C° 0.1 mm 2 mps 743 mmHg 95%
20:00 -8°C° 0.1 mm 2 mps 743 mmHg 95%
21:00 -7°C° 0.1 mm 2 mps 743 mmHg 95%
22:00 -7°C° 0.1 mm 2 mps 743 mmHg 96%
23:00 -6°C° 0.1 mm 2 mps 743 mmHg 96%

Day after tomorrow, 22 January, Friday

Time Temperature Precipitation Wind Pressure Humidity
00:00 -6°C° 0.2 mm 3 mps 743 mmHg 96%
01:00 -5°C° 0.2 mm 3 mps 743 mmHg 96%
02:00 -2°C° 0.2 mm 3 mps 743 mmHg 95%
03:00 -2°C° 0.2 mm 3 mps 742 mmHg 96%
04:00 -1°C° 0.2 mm 3 mps 742 mmHg 96%
05:00 0°C° 0.2 mm 3 mps 742 mmHg 96%
06:00 0°C° 0.1 mm 3 mps 742 mmHg 96%
07:00 -1°C° 0.1 mm 4 mps 742 mmHg 96%
08:00 -1°C° 0.1 mm 4 mps 742 mmHg 96%
09:00 -1°C° 0 mm 4 mps 742 mmHg 96%
10:00 -1°C° 0 mm 4 mps 742 mmHg 97%
11:00 0°C° 0 mm 3 mps 742 mmHg 98%
12:00 -1°C° 0 mm 4 mps 742 mmHg 97%
13:00 -1°C° 0 mm 4 mps 742 mmHg 97%
14:00 -1°C° 0 mm 4 mps 742 mmHg 96%
15:00 -1°C° 0 mm 4 mps 741 mmHg 96%
16:00 -1°C° 0 mm 4 mps 741 mmHg 95%
17:00 0°C° 0 mm 3 mps 741 mmHg 95%
18:00 0°C° 0 mm 3 mps 741 mmHg 96%
19:00 0°C° 0 mm 3 mps 741 mmHg 97%
20:00 0°C° 0 mm 3 mps 741 mmHg 98%
21:00 -1°C° 0.1 mm 4 mps 741 mmHg 97%
22:00 -1°C° 0.1 mm 4 mps 741 mmHg 97%
23:00 -1°C° 0.1 mm 4 mps 740 mmHg 97%

23 January, Saturday

Time Temperature Precipitation Wind Pressure Humidity
00:00 -1°C° 0 mm 4 mps 740 mmHg 97%
01:00 0°C° 0 mm 3 mps 740 mmHg 97%
02:00 0°C° 0 mm 3 mps 740 mmHg 97%
03:00 0°C° 0 mm 3 mps 740 mmHg 96%
04:00 0°C° 0 mm 3 mps 740 mmHg 96%
05:00 0°C° 0 mm 3 mps 740 mmHg 95%
06:00 0°C° 0.1 mm 3 mps 740 mmHg 95%
07:00 -2°C° 0.1 mm 4 mps 740 mmHg 95%
08:00 -2°C° 0.1 mm 4 mps 740 mmHg 95%
09:00 -2°C° 0.1 mm 4 mps 740 mmHg 96%
10:00 -2°C° 0.1 mm 4 mps 740 mmHg 97%
11:00 -2°C° 0.1 mm 4 mps 741 mmHg 97%
12:00 0°C° 0 mm 3 mps 741 mmHg 97%
13:00 0°C° 0 mm 3 mps 741 mmHg 98%
14:00 0°C° 0 mm 3 mps 741 mmHg 98%
15:00 0°C° 0 mm 3 mps 741 mmHg 98%
16:00 0°C° 0 mm 3 mps 741 mmHg 97%
17:00 +1°C° 0 mm 2 mps 741 mmHg 96%
18:00 +1°C° 0 mm 2 mps 742 mmHg 96%
19:00 +1°C° 0 mm 2 mps 742 mmHg 97%
20:00 +1°C° 0 mm 2 mps 742 mmHg 97%
21:00 +1°C° 0.1 mm 2 mps 742 mmHg 97%
22:00 +1°C° 0.1 mm 2 mps 742 mmHg 97%
23:00 +1°C° 0.1 mm 2 mps 742 mmHg 98%

24 January, Sunday

Time Temperature Precipitation Wind Pressure Humidity
00:00 +1°C° 0 mm 2 mps 742 mmHg 98%
01:00 +1°C° 0 mm 2 mps 742 mmHg 98%
02:00 +1°C° 0 mm 2 mps 742 mmHg 98%
03:00 +1°C° 0 mm 2 mps 742 mmHg 98%
04:00 0°C° 0 mm 3 mps 742 mmHg 98%
05:00 0°C° 0 mm 3 mps 742 mmHg 98%
06:00 0°C° 0 mm 3 mps 742 mmHg 98%
07:00 0°C° 0 mm 3 mps 742 mmHg 98%
08:00 0°C° 0 mm 3 mps 742 mmHg 98%
09:00 +1°C° 0 mm 3 mps 742 mmHg 98%
10:00 +1°C° 0 mm 3 mps 742 mmHg 99%
11:00 +1°C° 0 mm 3 mps 741 mmHg 99%
12:00 +1°C° 0 mm 3 mps 741 mmHg 99%
13:00 +1°C° 0 mm 3 mps 741 mmHg 99%
14:00 +1°C° 0 mm 3 mps 741 mmHg 99%
15:00 0°C° 0 mm 4 mps 740 mmHg 99%
16:00 0°C° 0 mm 4 mps 740 mmHg 99%
17:00 0°C° 0 mm 5 mps 740 mmHg 98%
18:00 0°C° 0.1 mm 5 mps 740 mmHg 98%
19:00 +1°C° 0.1 mm 5 mps 740 mmHg 98%
20:00 +1°C° 0.1 mm 5 mps 740 mmHg 98%
21:00 +1°C° 0.1 mm 5 mps 740 mmHg 98%
22:00 0°C° 0.1 mm 4 mps 740 mmHg 98%
23:00 0°C° 0.1 mm 4 mps 740 mmHg 98%

25 January, Monday

Time Temperature Precipitation Wind Pressure Humidity
00:00 0°C° 0 mm 4 mps 740 mmHg 98%
01:00 0°C° 0 mm 4 mps 741 mmHg 98%
02:00 0°C° 0 mm 4 mps 741 mmHg 98%
03:00 0°C° 0 mm 4 mps 741 mmHg 98%
04:00 +1°C° 0 mm 3 mps 741 mmHg 98%
05:00 +1°C° 0 mm 3 mps 741 mmHg 98%
06:00 +1°C° 0 mm 3 mps 741 mmHg 98%
07:00 +1°C° 0 mm 3 mps 741 mmHg 98%
08:00 +1°C° 0 mm 3 mps 741 mmHg 98%
09:00 +1°C° 0.1 mm 3 mps 741 mmHg 98%
10:00 0°C° 0.1 mm 4 mps 740 mmHg 98%
11:00 0°C° 0.1 mm 4 mps 740 mmHg 98%
12:00 0°C° 0.3 mm 4 mps 740 mmHg 98%
13:00 0°C° 0.3 mm 4 mps 740 mmHg 98%
14:00 0°C° 0.3 mm 4 mps 739 mmHg 98%
15:00 0°C° 0.5 mm 4 mps 739 mmHg 98%
16:00 0°C° 0.5 mm 4 mps 739 mmHg 98%
17:00 0°C° 0.5 mm 4 mps 739 mmHg 98%
18:00 0°C° 0.1 mm 4 mps 739 mmHg 97%
19:00 0°C° 0.1 mm 4 mps 739 mmHg 97%
20:00 0°C° 0.1 mm 4 mps 739 mmHg 96%
21:00 +1°C° 0 mm 3 mps 740 mmHg 96%
22:00 0°C° 0 mm 3 mps 740 mmHg 96%
23:00 0°C° 0 mm 3 mps 741 mmHg 96%
Show more